Change the Weather History Date:

Friday, December 14, 2012

  Actual Average Record
Temperature  
Mean Temperature 39 °F 31 °F  
Max Temperature 48 °F 45 °F 69 °F (2010)
Min Temperature 29 °F 17 °F -11 °F (1987)
Degree Days  
Heating Degree Days 26 34  
Month to date heating degree days 390 459  
Since 1 July heating degree days 1438 1692  
Cooling Degree Days 0 0  
Month to date cooling degree days 0 0  
Year to date cooling degree days 1175 719  
Moisture  
Dew Point 25 °F    
Average Humidity 57    
Maximum Humidity 73    
Minimum Humidity 40    
Precipitation  
Precipitation T in 0.02 in 0.32 in (1959)
Month to date precipitation 0.17 0.26  
Year to date precipitation 13.56  
Sea Level Pressure  
Sea Level Pressure 29.60 in    
Wind  
Wind Speed 9 mph (West)    
Max Wind Speed 25 mph    
Max Gust Speed 31 mph    
Visibility 10 miles    
Events Rain    
T = Trace of Precipitation, MM = Missing Value Source: NWS Daily Summary

Daily Weather History Graph

Daily Weather History Graph

Search for Another Location

Airport or City:

Trip Planner

Search our weather history database for the weather conditions in past years. The results will help you decide how hot, cold, wet, or windy it might be!

Date:

Astronomy

Dec. 14, 2012 Rise Set
Actual Time 7:03 AM MST 4:40 PM MST
Civil Twilight 6:34 AM MST 5:09 PM MST
Nautical Twilight 6:01 AM MST 5:42 PM MST
Astronomical Twilight 5:30 AM MST 6:14 PM MST
Moon 8:11 AM MST (12/14) 6:34 PM MST (12/14)
Length of Visible Light 10h 35m
Length of Day
9h 37m
Waxing Crescent, 3% of the Moon is Illuminated
Dec 14
Waxing Crescent
Dec 19
First Quarter
Dec 28
Full
Jan 4
Last Quarter
Jan 11
New

Hourly Weather History & Observations

Time (MST) Temp. Windchill Dew Point Humidity Pressure Visibility Wind Dir Wind Speed Gust Speed Precip Events Conditions
12:54 AM 37.0 °F 32.4 °F 18.0 °F 46% 29.82 in 10.0 mi WSW 5.8 mph - N/A   Clear
1:54 AM 36.0 °F 28.5 °F 18.0 °F 48% 29.82 in 10.0 mi West 10.4 mph - N/A   Clear
2:54 AM 37.9 °F 34.4 °F 17.1 °F 43% 29.78 in 10.0 mi NNW 4.6 mph - N/A   Clear
4:54 AM 37.9 °F 31.5 °F 17.1 °F 43% 29.74 in 10.0 mi West 9.2 mph - N/A   Clear
5:54 AM 36.0 °F 31.1 °F 17.1 °F 46% 29.73 in 10.0 mi NNW 5.8 mph - N/A   Clear
6:54 AM 34.0 °F 29.8 °F 18.0 °F 52% 29.77 in 10.0 mi North 4.6 mph - N/A   Partly Cloudy
7:54 AM 39.9 °F 33.9 °F 19.9 °F 45% 29.73 in 10.0 mi SW 9.2 mph - N/A   Mostly Cloudy
8:54 AM 36.0 °F 26.3 °F 32.0 °F 86% 29.75 in 7.0 mi West 16.1 mph 24.2 mph 0.00 in Rain Light Rain
9:54 AM 39.9 °F 37.8 °F 34.0 °F 79% 29.69 in 10.0 mi Variable 3.5 mph - 0.00 in   Clear
10:54 AM 41.0 °F 38.0 °F 33.1 °F 73% 29.65 in 10.0 mi NW 4.6 mph - N/A   Overcast
11:54 AM 45.0 °F 41.8 °F 33.1 °F 63% 29.57 in 10.0 mi NW 5.8 mph - N/A   Clear
12:54 PM 46.0 °F 41.9 °F 34.0 °F 63% 29.47 in 10.0 mi West 8.1 mph - N/A   Scattered Clouds
1:46 PM 44.6 °F 36.9 °F 33.8 °F 66% 29.53 in 10.0 mi West 18.4 mph - N/A   Scattered Clouds
1:54 PM 44.1 °F 37.4 °F 33.1 °F 65% 29.47 in 10.0 mi West 13.8 mph - N/A   Mostly Cloudy
2:54 PM 42.1 °F 36.6 °F 32.0 °F 67% 29.47 in 10.0 mi West 9.2 mph - N/A   Overcast
3:54 PM 43.0 °F 35.4 °F 27.0 °F 53% 29.44 in 10.0 mi WSW 16.1 mph 24.2 mph N/A   Clear
4:54 PM 41.0 °F 33.9 °F 26.1 °F 55% 29.37 in 10.0 mi West 12.7 mph 20.7 mph N/A   Mostly Cloudy
5:54 PM 39.0 °F 31.4 °F 27.0 °F 62% 29.42 in 10.0 mi West 12.7 mph - N/A   Partly Cloudy
6:54 PM 39.9 °F 32.9 °F 24.1 °F 53% 29.45 in 10.0 mi WSW 11.5 mph - N/A   Clear
7:54 PM 41.0 °F 33.9 °F 21.9 °F 47% 29.46 in 10.0 mi WNW 12.7 mph - N/A   Mostly Cloudy
8:54 PM 39.9 °F 32.9 °F 21.9 °F 49% 29.51 in 10.0 mi West 11.5 mph - N/A   Overcast
9:54 PM 39.9 °F 33.4 °F 19.0 °F 43% 29.52 in 10.0 mi West 10.4 mph - N/A   Overcast
10:54 PM 37.0 °F 32.4 °F 18.0 °F 46% 29.56 in 10.0 mi WNW 5.8 mph - N/A   Clear
11:54 PM 37.0 °F 29.8 °F 18.0 °F 46% 29.60 in 10.0 mi WSW 10.4 mph - N/A   Clear